Location: ??
(36.7391°N, 127.5151°E)
Time: 10:24:23
(UTC+00:00)

Cosmos 1544 - Pass Details

Date: 07 June 2020
Orbit: 471 x 492 km, 82.5° (Epoch: 03 July)

Event Time Altitude Azimuth Distance (km) Brightness Sun altitude
Rises 11:14:39 0° 345° (NNW) 2,532 7.6 -5.6°
Reaches altitude 10° 11:16:49 10° 338° (NNW) 1,647 6.7 -5.9°
Maximum altitude 11:20:13 41° 267° (W) 698 4.4 -6.5°
Drops below altitude 10° 11:23:35 10° 196° (SSW) 1,628 5.5 -7.0°
Sets 11:25:43 0° 189° (S) 2,499 6.4 -7.4°
